User: anonymous   Login
Location: Bavegemberg
(50.9500°N, 3.8833°E)
Time: 18:57:25
(UTC+00:00)
Language:

Cosmos 841 Rocket - Orbit

View from above orbital plane
View from above orbital plane
View from above satellite
View from above satellite

Ground track
Ground track

The orbit data is extracted from the following two-line orbital elements,

1  9023U 76069B   24202.54603982  .00000757  00000-0  24595-3 0  9996
2  9023  74.0442 354.4002 0018033 241.1191 118.8155 14.40449279517623
Epoch (UTC): 20 July 2024 13:06:17
Eccentricity: 0.0018033
inclination: 74.0442°
perigee height: 744 km
apogee height: 770 km
right ascension of ascending node: 354.4002°
argument of perigee: 241.1191°
revolutions per day: 14.40449279
mean anomaly at epoch: 118.8155°
orbit number at epoch: 51762

The dashed part of the orbit path shows where the satellite is in the earth's shadow,  

DLR